METEOR-M2 2

Last updated on Fri Dec 19 2025 00:02:25 GMT+0000 (Coordinated Universal Time)

1 44387U 19038A 25352.63782010 .00000335 00000+0 16495-3 0 9999 2 44387 98.8967 332.4390 0001472 135.1732 224.9565 14.24294831335591
UTC large
Height (km)
Speed (km/s)
/
Latitude / Longitude
Inclination (degrees)
Orbital Period (minutes)
Azimuth
Elevation
Range (km)
Doppler Factor

Next 0 passes for location: London (51.5072 / 0.1276)

Sorry there are no passes over London.